Change the Weather History Date:

Wednesday, May 2, 2012

  Actual Average Record
Temperature  
Mean Temperature 68 °F -  
Max Temperature 81 °F 62 °F 81 °F (2012)
Min Temperature 57 °F 45 °F 27 °F (2011)
Cooling Degree Days 4    
Growing Degree Days 18 (Base 50)    
Moisture  
Dew Point 61 °F    
Average Humidity 93    
Maximum Humidity 100    
Minimum Humidity 48    
Precipitation  
Precipitation 0.64 in - - ()
Sea Level Pressure  
Sea Level Pressure 29.72 in    
Wind  
Wind Speed 10 mph (South)    
Max Wind Speed 23 mph    
Max Gust Speed 31 mph    
Visibility 7 miles    
Events Rain , Thunderstorm    
Averages and records for this station are not official NWS values.
T = Trace of Precipitation, MM = Missing Value Source: NWS Daily Summary

Daily Weather History Graph

Daily Weather History Graph

Search for Another Location

Airport or City:

Trip Planner

Search our weather history database for the weather conditions in past years. The results will help you decide how hot, cold, wet, or windy it might be!

Date:

Astronomy

May. 02, 2012 Rise Set
Actual Time 5:50 AM CDT 8:05 PM CDT
Civil Twilight 5:18 AM CDT 8:37 PM CDT
Nautical Twilight 4:39 AM CDT 9:17 PM CDT
Astronomical Twilight 3:55 AM CDT 10:01 PM CDT
Moon 4:11 PM CDT (5/2) 3:28 AM CDT (5/2)
Length of Visible Light 15h 19m
Length of Day
14h 15m
Waxing Gibbous, 83% of the Moon is Illuminated
May 2
Waxing Gibbous
May 5
Full
May 12
Last Quarter
May 20
New
May 28
First Quarter

Hourly Weather History & Observations

Time (CDT) Temp. Heat Index Dew Point Humidity Pressure Visibility Wind Dir Wind Speed Gust Speed Precip Events Conditions
12:55 AM 60.4 °F - 60.4 °F 100% 29.72 in 10.0 mi SE 12.7 mph 17.3 mph N/A   Overcast
1:55 AM 59.5 °F - 59.5 °F 100% 29.67 in 10.0 mi SE 10.4 mph - N/A   Overcast
2:12 AM 59.0 °F - 59.0 °F 100% 29.66 in 9.0 mi SE 11.5 mph - N/A Rain Light Rain
2:21 AM 59.0 °F - 59.0 °F 100% 29.65 in 8.0 mi SE 11.5 mph - N/A Rain Light Rain
2:22 AM 59.0 °F - 59.0 °F 100% 29.65 in 8.0 mi SE 11.5 mph - N/A   Overcast
2:28 AM 59.0 °F - 59.0 °F 100% 29.66 in 8.0 mi SSE 8.1 mph - N/A   Light Drizzle
2:29 AM 59.0 °F - 59.0 °F 100% 29.66 in 8.0 mi SSE 8.1 mph - N/A   Light Drizzle
2:31 AM 59.0 °F - 59.0 °F 100% 29.67 in 8.0 mi SSE 9.2 mph - N/A Rain Light Rain
2:35 AM 59.0 °F - 59.0 °F 100% 29.67 in 7.0 mi South 8.1 mph - N/A Rain , Thunderstorm Light Thunderstorms and Rain
2:52 AM 59.0 °F - 59.0 °F 100% 29.67 in 2.5 mi SE 12.7 mph - N/A Rain , Thunderstorm Heavy Thunderstorms and Rain
2:54 AM 59.0 °F - 59.0 °F 100% 29.67 in 2.5 mi SSE 11.5 mph - N/A Rain , Thunderstorm Heavy Thunderstorms and Rain
2:55 AM 58.6 °F - 58.6 °F 100% 29.67 in 2.0 mi SSE 11.5 mph - 0.00 in Rain , Thunderstorm Thunderstorms and Rain
2:56 AM 59.0 °F - 59.0 °F 100% 29.67 in 2.0 mi SSE 10.4 mph - N/A Rain , Thunderstorm Thunderstorms and Rain
3:01 AM 59.0 °F - 59.0 °F 100% 29.65 in 2.5 mi ESE 17.3 mph - N/A Rain , Thunderstorm Thunderstorms and Rain
3:04 AM 59.0 °F - 59.0 °F 100% 29.65 in 3.0 mi SE 11.5 mph - N/A Rain , Thunderstorm Light Thunderstorms and Rain
3:05 AM 59.0 °F - 59.0 °F 100% 29.66 in 3.0 mi SE 10.4 mph - N/A Rain , Thunderstorm Light Thunderstorms and Rain
3:12 AM 59.0 °F - 59.0 °F 100% 29.65 in 5.0 mi SSE 8.1 mph - N/A Rain , Thunderstorm Light Thunderstorms and Rain
3:13 AM 59.0 °F - 59.0 °F 100% 29.66 in 6.0 mi SSE 6.9 mph - N/A Rain Light Rain
3:21 AM 59.0 °F - 59.0 °F 100% 29.72 in 4.0 mi West 23.0 mph 31.1 mph N/A Rain Light Rain
3:23 AM 59.0 °F - 59.0 °F 100% 29.72 in 2.0 mi West 21.9 mph 31.1 mph N/A Rain Rain
3:25 AM 59.0 °F - 59.0 °F 100% 29.72 in 1.8 mi West 19.6 mph 31.1 mph N/A Rain Heavy Rain
3:26 AM 59.0 °F - 59.0 °F 100% 29.72 in 1.5 mi WNW 17.3 mph 31.1 mph N/A Rain Heavy Rain
3:28 AM 59.0 °F - 59.0 °F 100% 29.71 in 1.2 mi WNW 9.2 mph 31.1 mph N/A Rain Heavy Rain
3:32 AM 59.0 °F - 59.0 °F 100% 29.72 in 1.5 mi West 9.2 mph 29.9 mph N/A Rain Heavy Rain
3:34 AM 59.0 °F - 59.0 °F 100% 29.72 in 1.8 mi West 8.1 mph - N/A Rain Heavy Rain
3:36 AM 59.0 °F - 59.0 °F 100% 29.72 in 2.0 mi West 5.8 mph - N/A Rain , Thunderstorm Thunderstorms and Rain
3:38 AM 59.0 °F - 59.0 °F 100% 29.71 in 2.5 mi West 4.6 mph - N/A Rain , Thunderstorm Thunderstorms and Rain
3:41 AM 59.0 °F - 59.0 °F 100% 29.72 in 3.0 mi West 4.6 mph - N/A Rain , Thunderstorm Light Thunderstorms and Rain
3:43 AM 59.0 °F - 59.0 °F 100% 29.71 in 2.5 mi West 4.6 mph - N/A Rain , Thunderstorm Light Thunderstorms and Rain
3:53 AM 59.0 °F - 59.0 °F 100% 29.71 in 3.0 mi Calm Calm - N/A Rain , Thunderstorm Light Thunderstorms and Rain
3:54 AM 59.0 °F - 59.0 °F 100% 29.71 in 2.5 mi Calm Calm - N/A Rain , Thunderstorm Light Thunderstorms and Rain
3:55 AM 58.3 °F - 58.3 °F 100% 29.71 in 2.5 mi Calm Calm - 0.00 in Rain , Thunderstorm Light Thunderstorms and Rain
3:58 AM 59.0 °F - 59.0 °F 100% 29.71 in 3.0 mi Calm Calm - N/A Rain , Thunderstorm Thunderstorms and Rain
4:03 AM 59.0 °F - 59.0 °F 100% 29.70 in 2.5 mi ESE 5.8 mph - N/A Rain , Thunderstorm Light Thunderstorms and Rain
4:04 AM 59.0 °F - 59.0 °F 100% 29.70 in 3.0 mi ESE 5.8 mph - N/A Rain , Thunderstorm Light Thunderstorms and Rain
4:18 AM 57.2 °F - 57.2 °F 100% 29.67 in 4.0 mi East 4.6 mph - N/A Rain Light Rain
4:47 AM 57.2 °F - 57.2 °F 100% 29.62 in 9.0 mi SE 10.4 mph - N/A   Light Drizzle
4:55 AM 57.9 °F - 57.9 °F 100% 29.62 in 9.0 mi SE 9.2 mph - 0.00 in Rain Light Rain
4:59 AM 57.2 °F - 57.2 °F 100% 29.62 in 8.0 mi SE 8.1 mph - N/A Rain Light Rain
5:09 AM 57.2 °F - 57.2 °F 100% 29.64 in 7.0 mi SSE 11.5 mph - N/A Rain Light Rain
5:21 AM 59.0 °F - 59.0 °F 100% 29.64 in 7.0 mi SSE 13.8 mph - N/A Rain Light Rain
5:23 AM 59.0 °F - 59.0 °F 100% 29.64 in 7.0 mi South 12.7 mph - N/A Rain Light Rain
5:40 AM 59.0 °F - 59.0 °F 100% 29.66 in 10.0 mi South 12.7 mph - N/A Rain Light Rain
5:54 AM 59.0 °F - 59.0 °F 100% 29.65 in 10.0 mi SSE 8.1 mph 17.3 mph N/A Rain Light Rain
5:55 AM 58.5 °F - 58.5 °F 100% 29.65 in 10.0 mi SSE 6.9 mph 17.3 mph 0.00 in Rain Light Rain
6:18 AM 59.0 °F - 59.0 °F 100% 29.58 in 10.0 mi SE 19.6 mph - N/A   Partly Cloudy
6:49 AM 59.0 °F - 59.0 °F 100% 29.67 in 10.0 mi WNW 20.7 mph 26.5 mph N/A   Partly Cloudy
6:55 AM 59.0 °F - 59.0 °F 100% 29.67 in 10.0 mi WNW 12.7 mph 28.8 mph N/A   Overcast
7:55 AM 60.8 °F - 60.8 °F 100% 29.72 in 10.0 mi West 4.6 mph - N/A   Mostly Cloudy
8:55 AM 64.4 °F - 64.4 °F 100% 29.73 in 10.0 mi WSW 4.6 mph - N/A   Mostly Cloudy
9:55 AM 68.0 °F - 66.2 °F 94% 29.77 in 10.0 mi WSW 6.9 mph - N/A   Mostly Cloudy
10:55 AM 71.6 °F - 62.6 °F 73% 29.76 in 10.0 mi SW 9.2 mph - N/A   Mostly Cloudy
11:55 AM 73.4 °F - 60.8 °F 65% 29.76 in 10.0 mi WSW 12.7 mph 19.6 mph N/A   Scattered Clouds
12:55 PM 77.0 °F - 60.8 °F 57% 29.78 in 10.0 mi WSW 8.1 mph - N/A   Scattered Clouds
1:55 PM 78.8 °F - 62.6 °F 57% 29.78 in 10.0 mi WSW 10.4 mph - N/A   Scattered Clouds
2:55 PM 80.6 °F 81.8 °F 62.6 °F 54% 29.78 in 10.0 mi West 11.5 mph - N/A   Scattered Clouds
3:55 PM 80.6 °F 81.1 °F 59.0 °F 48% 29.78 in 10.0 mi Variable 6.9 mph - N/A   Scattered Clouds
4:55 PM 80.6 °F 81.8 °F 62.6 °F 54% 29.79 in 10.0 mi West 10.4 mph - N/A   Mostly Cloudy
5:55 PM 80.6 °F 81.5 °F 60.8 °F 51% 29.79 in 10.0 mi West 6.9 mph - N/A   Mostly Cloudy
6:55 PM 78.8 °F - 62.6 °F 57% 29.80 in 10.0 mi SW 4.6 mph - N/A   Mostly Cloudy
7:55 PM 75.2 °F - 62.6 °F 65% 29.80 in 10.0 mi SSE 3.5 mph - N/A   Mostly Cloudy
8:36 PM 73.4 °F - 64.4 °F 73% 29.82 in 10.0 mi South 4.6 mph - N/A Rain Light Rain
8:55 PM 73.4 °F - 64.4 °F 73% 29.81 in 10.0 mi South 10.4 mph - N/A Rain Light Rain
8:59 PM 73.4 °F - 64.4 °F 73% 29.82 in 10.0 mi South 8.1 mph - N/A   Mostly Cloudy
9:23 PM 71.6 °F - 66.2 °F 83% 29.81 in 10.0 mi SSE 5.8 mph - N/A Thunderstorm Thunderstorm
9:39 PM 71.6 °F - 66.2 °F 83% 29.82 in 6.0 mi South 3.5 mph - N/A Rain , Thunderstorm Light Thunderstorms and Rain
9:55 PM 69.8 °F - 69.8 °F 100% 29.81 in 5.0 mi Calm Calm - N/A Rain , Thunderstorm Light Thunderstorms and Rain
10:08 PM 68.0 °F - 68.0 °F 100% 29.82 in 10.0 mi Calm Calm - N/A Thunderstorm Thunderstorm
10:12 PM 68.0 °F - 68.0 °F 100% 29.82 in 10.0 mi SSE 3.5 mph - N/A Rain , Thunderstorm Light Thunderstorms and Rain
10:55 PM 68.0 °F - 68.0 °F 100% 29.83 in 4.0 mi SW 6.9 mph - N/A Rain , Thunderstorm Light Thunderstorms and Rain
11:16 PM 68.0 °F - 68.0 °F 100% 29.82 in 2.0 mi SSE 13.8 mph - N/A Rain , Thunderstorm Heavy Thunderstorms and Rain
11:24 PM 66.2 °F - 66.2 °F 100% 29.81 in 4.0 mi South 12.7 mph 26.5 mph N/A Rain , Thunderstorm Light Thunderstorms and Rain
11:50 PM 66.2 °F - 66.2 °F 100% 29.81 in 10.0 mi SSE 4.6 mph - N/A Thunderstorm Overcast
11:55 PM 66.2 °F - 66.2 °F 100% 29.80 in 10.0 mi SE 4.6 mph - N/A Thunderstorm Overcast